CHINASAT 12 (ZX 12)

Last updated on Nov. 18, 2019, 4:21 a.m. UTC

1 39017U 12067A   19320.87025389 -.00000198  00000-0  00000-0 0  9992
2 39017   0.0187  41.6922 0003129 188.6604 226.1267  1.00270282 25409
UTC
Height (km)
Latitude
Longitude
Inclination
Orbital Period
UTC large
Height (km)
Speed (km/s)
/
Latitude / Longitude
Inclination (degrees)
Orbital Period (minutes)
Azimuth
Elevation
Range (km)
Doppler Factor
iOS Compass Heading
iOS Angle

Next 30 passes for location: Hong Kong

Rise time Rise Azimuth (degrees) Set time Set Azimuth (degrees) Duration Max altitude (degrees)

No matching passes for this satellites